• In Netherlands
  • List of Countries
  • For 7 days
  • Water Temperature
  • Satellite Maps
  • Weather Map
  • Weather Widgets
  • user-avatar
    Login

    Hourly Weather Balchik

    Today, 25 July, Tuesday

    Time Temperature Precipitation Wind Pressure Humidity
    00:00 +23°C° 0 mm 4 mps 733 mmHg 66%
    01:00 +22°C° 0 mm 4 mps 733 mmHg 66%
    02:00 +22°C° 0 mm 4 mps 733 mmHg 67%
    03:00 +22°C° 0 mm 4 mps 732 mmHg 67%
    04:00 +22°C° 0 mm 4 mps 732 mmHg 67%
    05:00 +22°C° 0 mm 3 mps 732 mmHg 67%
    06:00 +23°C° 0.1 mm 4 mps 732 mmHg 61%
    07:00 +26°C° 0.1 mm 5 mps 732 mmHg 55%
    08:00 +28°C° 0.1 mm 5 mps 732 mmHg 49%
    09:00 +29°C° 0 mm 6 mps 731 mmHg 44%
    10:00 +32°C° 0 mm 7 mps 731 mmHg 40%
    11:00 +34°C° 0 mm 7 mps 731 mmHg 35%
    12:00 +34°C° 0 mm 7 mps 731 mmHg 34%
    13:00 +34°C° 0 mm 7 mps 731 mmHg 34%
    14:00 +35°C° 0 mm 7 mps 730 mmHg 33%
    15:00 +33°C° 0.1 mm 7 mps 730 mmHg 37%
    16:00 +32°C° 0.1 mm 7 mps 729 mmHg 40%
    17:00 +30°C° 0.1 mm 7 mps 729 mmHg 44%
    18:00 +28°C° 0.7 mm 6 mps 729 mmHg 54%
    19:00 +26°C° 0.7 mm 5 mps 729 mmHg 64%
    20:00 +23°C° 0.7 mm 4 mps 729 mmHg 74%
    21:00 +22°C° 0.7 mm 3 mps 729 mmHg 77%
    22:00 +22°C° 0.7 mm 3 mps 730 mmHg 80%
    23:00 +21°C° 0.7 mm 2 mps 730 mmHg 83%

    Tomorrow, 26 July, Wednesday

    Time Temperature Precipitation Wind Pressure Humidity
    00:00 +21°C° 0 mm 2 mps 730 mmHg 85%
    01:00 +21°C° 0 mm 2 mps 730 mmHg 87%
    02:00 +20°C° 0 mm 2 mps 730 mmHg 90%
    03:00 +20°C° 0 mm 3 mps 730 mmHg 89%
    04:00 +19°C° 0 mm 4 mps 730 mmHg 89%
    05:00 +19°C° 0 mm 4 mps 730 mmHg 89%
    06:00 +20°C° 0 mm 4 mps 730 mmHg 81%
    07:00 +21°C° 0 mm 5 mps 730 mmHg 73%
    08:00 +23°C° 0 mm 5 mps 730 mmHg 65%
    09:00 +26°C° 0 mm 4 mps 731 mmHg 57%
    10:00 +28°C° 0 mm 4 mps 731 mmHg 49%
    11:00 +30°C° 0 mm 3 mps 731 mmHg 41%
    12:00 +31°C° 0 mm 3 mps 731 mmHg 39%
    13:00 +32°C° 0 mm 2 mps 730 mmHg 37%
    14:00 +34°C° 0 mm 2 mps 730 mmHg 35%
    15:00 +32°C° 0 mm 2 mps 730 mmHg 36%
    16:00 +32°C° 0 mm 2 mps 730 mmHg 38%
    17:00 +33°C° 0 mm 3 mps 729 mmHg 40%
    18:00 +30°C° 0 mm 2 mps 729 mmHg 47%
    19:00 +28°C° 0 mm 2 mps 729 mmHg 55%
    20:00 +25°C° 0 mm 1 mps 729 mmHg 62%
    21:00 +25°C° 0.2 mm 1 mps 730 mmHg 67%
    22:00 +24°C° 0.2 mm 1 mps 730 mmHg 71%
    23:00 +23°C° 0.2 mm 1 mps 730 mmHg 75%

    Day after tomorrow, 27 July, Thursday

    Time Temperature Precipitation Wind Pressure Humidity
    00:00 +21°C° 0.4 mm 2 mps 730 mmHg 77%
    01:00 +21°C° 0.4 mm 2 mps 730 mmHg 79%
    02:00 +20°C° 0.4 mm 2 mps 730 mmHg 81%
    03:00 +20°C° 0 mm 3 mps 730 mmHg 82%
    04:00 +19°C° 0 mm 3 mps 730 mmHg 83%
    05:00 +19°C° 0 mm 4 mps 730 mmHg 84%
    06:00 +20°C° 0 mm 4 mps 730 mmHg 80%
    07:00 +21°C° 0 mm 4 mps 731 mmHg 75%
    08:00 +22°C° 0 mm 4 mps 731 mmHg 70%
    09:00 +25°C° 0.1 mm 4 mps 731 mmHg 64%
    10:00 +27°C° 0.1 mm 3 mps 731 mmHg 58%
    11:00 +29°C° 0.1 mm 3 mps 731 mmHg 51%
    12:00 +30°C° 0 mm 3 mps 731 mmHg 49%
    13:00 +31°C° 0 mm 3 mps 731 mmHg 46%
    14:00 +31°C° 0 mm 2 mps 731 mmHg 44%
    15:00 +30°C° 0.3 mm 3 mps 731 mmHg 47%
    16:00 +29°C° 0.3 mm 3 mps 731 mmHg 50%
    17:00 +28°C° 0.3 mm 4 mps 731 mmHg 54%
    18:00 +27°C° 0.1 mm 4 mps 731 mmHg 57%
    19:00 +26°C° 0.1 mm 3 mps 731 mmHg 61%
    20:00 +25°C° 0.1 mm 3 mps 731 mmHg 64%
    21:00 +23°C° 0.1 mm 4 mps 731 mmHg 66%
    22:00 +23°C° 0.1 mm 4 mps 732 mmHg 67%
    23:00 +22°C° 0.1 mm 4 mps 732 mmHg 69%

    28 July, Friday

    Time Temperature Precipitation Wind Pressure Humidity
    00:00 +21°C° 0.2 mm 4 mps 732 mmHg 73%
    01:00 +20°C° 0.2 mm 4 mps 732 mmHg 77%
    02:00 +19°C° 0.2 mm 4 mps 732 mmHg 82%
    03:00 +19°C° 0 mm 4 mps 732 mmHg 83%
    04:00 +17°C° 0 mm 5 mps 733 mmHg 84%
    05:00 +17°C° 0 mm 5 mps 733 mmHg 85%
    06:00 +19°C° 0.1 mm 5 mps 733 mmHg 79%
    07:00 +20°C° 0.1 mm 5 mps 733 mmHg 72%
    08:00 +21°C° 0.1 mm 6 mps 734 mmHg 66%
    09:00 +23°C° 0 mm 5 mps 734 mmHg 60%
    10:00 +25°C° 0 mm 5 mps 734 mmHg 54%
    11:00 +27°C° 0 mm 5 mps 735 mmHg 47%
    12:00 +27°C° 0.2 mm 5 mps 735 mmHg 46%
    13:00 +28°C° 0.2 mm 4 mps 735 mmHg 44%
    14:00 +28°C° 0.2 mm 4 mps 735 mmHg 42%
    15:00 +28°C° 0 mm 4 mps 735 mmHg 44%
    16:00 +28°C° 0 mm 4 mps 735 mmHg 45%
    17:00 +27°C° 0 mm 4 mps 735 mmHg 46%
    18:00 +26°C° 0 mm 3 mps 735 mmHg 49%
    19:00 +25°C° 0 mm 3 mps 735 mmHg 52%
    20:00 +24°C° 0 mm 3 mps 735 mmHg 56%
    21:00 +22°C° 0 mm 3 mps 735 mmHg 57%
    22:00 +21°C° 0 mm 3 mps 736 mmHg 58%
    23:00 +20°C° 0 mm 3 mps 736 mmHg 59%

    29 July, Saturday

    Time Temperature Precipitation Wind Pressure Humidity
    00:00 +20°C° 0 mm 3 mps 736 mmHg 61%
    01:00 +20°C° 0 mm 3 mps 736 mmHg 63%
    02:00 +19°C° 0 mm 3 mps 736 mmHg 64%
    03:00 +19°C° 0 mm 3 mps 737 mmHg 66%
    04:00 +18°C° 0 mm 3 mps 737 mmHg 68%
    05:00 +18°C° 0 mm 3 mps 737 mmHg 70%
    06:00 +20°C° 0 mm 3 mps 738 mmHg 64%
    07:00 +22°C° 0 mm 4 mps 738 mmHg 59%
    08:00 +23°C° 0 mm 4 mps 739 mmHg 53%
    09:00 +26°C° 0 mm 4 mps 739 mmHg 47%
    10:00 +28°C° 0 mm 5 mps 739 mmHg 41%
    11:00 +30°C° 0 mm 5 mps 739 mmHg 36%
    12:00 +32°C° 0 mm 5 mps 739 mmHg 34%
    13:00 +32°C° 0 mm 6 mps 739 mmHg 32%
    14:00 +33°C° 0 mm 6 mps 739 mmHg 30%
    15:00 +33°C° 0 mm 6 mps 739 mmHg 30%
    16:00 +33°C° 0 mm 5 mps 739 mmHg 30%
    17:00 +33°C° 0 mm 5 mps 739 mmHg 30%
    18:00 +30°C° 0 mm 4 mps 739 mmHg 35%
    19:00 +28°C° 0 mm 3 mps 739 mmHg 40%
    20:00 +25°C° 0 mm 2 mps 739 mmHg 45%
    21:00 +25°C° 0 mm 2 mps 739 mmHg 48%
    22:00 +24°C° 0 mm 2 mps 740 mmHg 51%
    23:00 +23°C° 0 mm 2 mps 740 mmHg 54%

    30 July, Sunday

    Time Temperature Precipitation Wind Pressure Humidity
    00:00 +21°C° 0 mm 2 mps 740 mmHg 56%
    01:00 +21°C° 0 mm 2 mps 740 mmHg 58%
    02:00 +21°C° 0 mm 3 mps 740 mmHg 61%
    03:00 +20°C° 0 mm 3 mps 741 mmHg 63%
    04:00 +20°C° 0 mm 3 mps 741 mmHg 66%
    05:00 +19°C° 0 mm 4 mps 741 mmHg 69%
    06:00 +21°C° 0 mm 4 mps 741 mmHg 63%
    07:00 +23°C° 0 mm 4 mps 742 mmHg 57%
    08:00 +25°C° 0 mm 4 mps 742 mmHg 51%
    09:00 +27°C° 0 mm 4 mps 742 mmHg 47%
    10:00 +28°C° 0 mm 4 mps 742 mmHg 43%
    11:00 +29°C° 0 mm 3 mps 742 mmHg 39%
    12:00 +30°C° 0 mm 3 mps 742 mmHg 37%
    13:00 +31°C° 0 mm 3 mps 742 mmHg 35%
    14:00 +31°C° 0 mm 3 mps 742 mmHg 34%
    15:00 +31°C° 0 mm 3 mps 741 mmHg 35%
    16:00 +30°C° 0 mm 3 mps 741 mmHg 37%
    17:00 +30°C° 0 mm 3 mps 741 mmHg 39%
    18:00 +28°C° 0 mm 3 mps 741 mmHg 47%
    19:00 +26°C° 0 mm 3 mps 741 mmHg 56%
    20:00 +22°C° 0 mm 3 mps 741 mmHg 64%
    21:00 +22°C° 0 mm 3 mps 741 mmHg 68%
    22:00 +21°C° 0 mm 2 mps 741 mmHg 73%
    23:00 +20°C° 0 mm 2 mps 741 mmHg 77%
    Show more